Weather WX

World > North America > United States > New York

Avon, New York Regional Weather

Lat: 42.91N, Lon: 77.75W
Wx Zone: NYZ013
Warning FLW WEATHER ALERT - (More Info. Click Here) Warning
Feedback

Avon, NY Regional Weather

Expires:201907181800;;259887
ASUS41 KALY 181710
RWRALY

NEW YORK STATE HOURLY WEATHER ROUNDUP
NATIONAL WEATHER SERVICE ALBANY NY
100 PM EDT THU JUL 18 2019

NOTE: "FAIR" INDICATES FEW OR NO CLOUDS BELOW 12,000 FEET WITH NO
SIGNIFICANT WEATHER AND/OR NO OBSTRUCTIONS TO VISIBILITY.


NYZ001>004-010>016-019>021-085-181800-
WEST

  
CITY           SKY/WX    TMP DP  RH WIND       PRES   REMARKS
NIAGARA FALLS  PTSUNNY   80  67  64 CALM      29.91F                  
BUFFALO        FAIR      82  68  62 CALM      29.92F                  
DUNKIRK        FAIR      79  71  76 N8        29.94F                  
JAMESTOWN      PTSUNNY   77  68  73 S5        29.99F                  
WELLSVILLE     PTSUNNY   78  67  68 VRB3      30.01S                  
ROCHESTER      FAIR      81  67  62 VRB3      29.93F                  
PENN YAN       FAIR      78  69  73 W3        29.95F                  
$$

             KEY
       WCI = WIND CHILL INDEX
       VSB = VISIBILITY
       HX  = HEAT INDEX
$$
  

SKY/WX - Weather  TMP - Temperature  DP - Dew Point  RH - Relative Humidity
WIND - Wind Direction/Speed PRES - Barometric Pressure VSB - Visibility
WCI - Wind Chill Index E13G22 Wind - East Wind 13 mph/Gusts of 22 mph